Location: Chuathbaluk
(61.5726°N, 159.2454°W)
Time: 15:45:19
(UTC+00:00)

S-56A Canister/Altair - Pass Details

Date: 01 December 2020
Orbit: 633 x 2499 km, 38.9° (Epoch: 15 January)

Event Time Altitude Azimuth Distance (km) Brightness Sun altitude
Rises 06:33:00 0° 224° (SW) 5,420 12.2 -34.1°
Reaches altitude 10° 06:38:57 10° 205° (SSW) 4,003 11.2 -34.7°
Enters shadow 06:42:07 14° 188° (S) 3,450 10.7 -35.1°
Maximum altitude 06:43:43 14° 177° (S) 3,276 - -35.3°
Drops below altitude 10° 06:47:47 10° 147° (SSE) 3,276 - -35.7°
Sets 06:51:46 0° 124° (SE) 3,892 - -36.2°
